This is the latest recevied weather packets stored in our database for station/object KT5AL. If no packets are shown the sender has not sent any weather packets the latest 10 day(s).
| Time | Temp. | Humidity | Pressure | Rain* | Wind** | Luminosity | Snow |
|---|---|---|---|---|---|---|---|
| 1777757103 | 23.33° C | 39% | 1018.2 hPa | 0 mm | - | - | - |
| 1777756806 | 23.33° C | 40% | 1018.2 hPa | 0 mm | - | - | - |
| 1777756503 | 22.78° C | 40% | 1017.8 hPa | 0 mm | - | - | - |
| 1777756206 | 22.78° C | 39% | 1017.8 hPa | 0 mm | - | - | - |
| 1777755903 | 23.33° C | 37% | 1017.8 hPa | 0 mm | - | - | - |
| 1777755607 | 24.44° C | 37% | 1017.8 hPa | 0 mm | - | - | - |
| 1777755307 | 23.33° C | 38% | 1018.2 hPa | 0 mm | - | - | - |
| 1777755004 | 22.78° C | 42% | 1018.2 hPa | 0 mm | - | - | - |
| 1777754733 | 22.78° C | 39% | 1017.8 hPa | 0 mm | - | - | - |
| 1777754404 | 23.33° C | 39% | 1017.8 hPa | 0 mm | - | - | - |
| 1777754107 | 23.89° C | 39% | 1018.5 hPa | 0 mm | - | - | - |
| 1777753804 | 24.44° C | 39% | 1018.5 hPa | 0 mm | - | - | - |
| 1777753507 | 22.78° C | 40% | 1018.5 hPa | 0 mm | - | - | - |
| 1777753204 | 22.78° C | 40% | 1018.5 hPa | 0 mm | - | - | - |
| 1777752907 | 23.33° C | 40% | 1018.5 hPa | 0 mm | - | - | - |
| 1777752604 | 22.78° C | 41% | 1018.5 hPa | 0 mm | - | - | - |
| 1777752307 | 22.78° C | 39% | 1018.5 hPa | 0 mm | - | - | - |
| 1777752004 | 22.78° C | 41% | 1018.5 hPa | 0 mm | - | - | - |
| 1777751707 | 22.78° C | 40% | 1018.5 hPa | 0 mm | - | - | - |
| 1777751405 | 23.33° C | 39% | 1018.5 hPa | 0 mm | - | - | - |
| 1777751104 | 22.78° C | 38% | 1018.8 hPa | 0 mm | - | - | - |
| 1777750808 | 23.33° C | 40% | 1018.8 hPa | 0 mm | - | - | - |
| 1777750505 | 22.78° C | 38% | 1018.8 hPa | 0 mm | - | - | - |
| 1777750208 | 22.78° C | 39% | 1018.8 hPa | 0 mm | - | - | - |
| 1777749905 | 23.33° C | 37% | 1019.2 hPa | 0 mm | - | - | - |
* Rain latest hour (hover to see other rain measurements)
** Current wind speed in m/s (hover to see current wind gust speed)